| time (UTC) | temp F | wind direction | speed knots | gust knots | rain 1hr in | rain 24hr in | rain mn in | humidity % | barometer mb |
| 20260504215025 | 73 | 268 | 4.3 | 12.2 | 0.00 | 0.00 | 0.00 | 35 | 1007.4 |
| 20260504214025 | 73 | 237 | 2.6 | 8.7 | 0.00 | 0.00 | 0.00 | 37 | 1007.4 |
| 20260504213025 | 72 | 108 | 4.3 | 10.4 | 0.00 | 0.00 | 0.00 | 37 | 1007.4 |
| 20260504211025 | 73 | 212 | 3.5 | 7.8 | 0.00 | 0.00 | 0.00 | 36 | 1007.6 |
| 20260504210024 | 73 | 161 | 2.6 | 12.2 | 0.00 | 0.00 | 0.00 | 36 | 1007.6 |
| 20260504205024 | 73 | 228 | 4.3 | 10.4 | 0.00 | 0.00 | 0.00 | 36 | 1007.8 |
| 20260504204025 | 73 | 205 | 2.6 | 7.8 | 0.00 | 0.00 | 0.00 | 36 | 1007.9 |
| 20260504203025 | 73 | 165 | 4.3 | 10.4 | 0.00 | 0.00 | 0.00 | 36 | 1008.0 |
| 20260504202025 | 74 | 164 | 4.3 | 11.3 | 0.00 | 0.00 | 0.00 | 36 | 1008.1 |
| 20260504201025 | 73 | 239 | 2.6 | 11.3 | 0.00 | 0.00 | 0.00 | 36 | 1008.3 |
| 20260504200025 | 73 | 170 | 1.7 | 10.4 | 0.00 | 0.00 | 0.00 | 38 | 1008.5 |
| 20260504195025 | 72 | 241 | 3.5 | 11.3 | 0.00 | 0.00 | 0.00 | 37 | 1008.6 |
| 20260504194024 | 72 | 173 | 5.2 | 12.2 | 0.00 | 0.00 | 0.00 | 37 | 1008.7 |
| 20260504193025 | 72 | 159 | 2.6 | 13.0 | 0.00 | 0.00 | 0.00 | 37 | 1008.8 |
| 20260504191025 | 71 | 188 | 3.5 | 8.7 | 0.00 | 0.00 | 0.00 | 38 | 1009.2 |
| 20260504190025 | 71 | 235 | 5.2 | 8.7 | 0.00 | 0.00 | 0.00 | 38 | 1009.3 |
| 20260504185025 | 70 | 188 | 2.6 | 10.4 | 0.00 | 0.00 | 0.00 | 40 | 1009.5 |
| 20260504184025 | 70 | 180 | 4.3 | 8.7 | 0.00 | 0.00 | 0.00 | 38 | 1009.6 |
| 20260504183024 | 70 | 129 | 4.3 | 10.4 | 0.00 | 0.00 | 0.00 | 40 | 1009.7 |
| 20260504182025 | 70 | 222 | 4.3 | 10.4 | 0.00 | 0.00 | 0.00 | 38 | 1009.8 |
| 20260504181025 | 70 | 187 | 5.2 | 8.7 | 0.00 | 0.00 | 0.00 | 37 | 1010.1 |
| 20260504180025 | 70 | 147 | 3.5 | 10.4 | 0.00 | 0.00 | 0.00 | 37 | 1010.1 |
| 20260504175025 | 69 | 155 | 2.6 | 10.4 | 0.00 | 0.00 | 0.00 | 39 | 1010.3 |
| 20260504174024 | 69 | 243 | 4.3 | 7.8 | 0.00 | 0.00 | 0.00 | 40 | 1010.4 |
| 20260504172024 | 70 | 190 | 5.2 | 10.4 | 0.00 | 0.00 | 0.00 | 38 | 1010.6 |
| 20260504171025 | 69 | 255 | 2.6 | 14.8 | 0.00 | 0.00 | 0.00 | 39 | 1010.6 |
| 20260504151025 | 63 | 196 | 2.6 | 7.0 | 0.00 | 0.00 | 0.00 | 40 | 1012.4 |
| 20260504141025 | 60 | 205 | 1.7 | 4.3 | 0.00 | 0.00 | 0.00 | 43 | 1012.8 |
| 20260504081025 | 45 | 209 | 0.0 | 0.0 | 0.00 | 0.00 | 0.00 | 60 | 1013.7 |
| 20260504050025 | 47 | 179 | 0.9 | 1.7 | 0.00 | 0.00 | 0.00 | 57 | 1013.9 |
| 20260504043025 | 48 | 204 | 1.7 | 4.3 | 0.00 | 0.00 | 0.00 | 52 | 1013.9 |
| 20260504042025 | 49 | 208 | 1.7 | 2.6 | 0.00 | 0.00 | 0.00 | 52 | 1013.7 |
| 20260504041024 | 49 | 229 | 1.7 | 5.2 | 0.00 | 0.00 | 0.00 | 50 | 1013.7 |
| 20260504035025 | 49 | 223 | 1.7 | 5.2 | 0.00 | 0.00 | 0.00 | 50 | 1013.6 |
| 20260504034025 | 49 | 205 | 1.7 | 5.2 | 0.00 | 0.00 | 0.00 | 50 | 1013.5 |
| 20260504033025 | 50 | 214 | 1.7 | 5.2 | 0.00 | 0.00 | 0.00 | 49 | 1013.5 |
| 20260504032025 | 50 | 222 | 0.9 | 4.3 | 0.00 | 0.00 | 0.00 | 49 | 1013.5 |
| 20260504031025 | 50 | 238 | 0.9 | 5.2 | 0.00 | 0.00 | 0.00 | 49 | 1013.5 |
| 20260504024025 | 51 | 221 | 1.7 | 6.1 | 0.00 | 0.00 | 0.00 | 48 | 1013.4 |
| 20260504023025 | 51 | 246 | 2.6 | 7.0 | 0.00 | 0.00 | 0.00 | 48 | 1013.5 |
| 20260504022025 | 51 | 199 | 1.7 | 7.0 | 0.00 | 0.00 | 0.00 | 47 | 1013.6 |
| 20260504021025 | 52 | 199 | 2.6 | 7.0 | 0.00 | 0.00 | 0.00 | 46 | 1013.6 |
| 20260504015025 | 52 | 213 | 2.6 | 5.2 | 0.00 | 0.00 | 0.00 | 45 | 1013.5 |
| 20260504014025 | 52 | 233 | 0.9 | 5.2 | 0.00 | 0.00 | 0.00 | 45 | 1013.4 |
| 20260504013025 | 52 | 208 | 0.9 | 7.8 | 0.00 | 0.00 | 0.00 | 45 | 1013.3 |
| 20260504012025 | 52 | 214 | 1.7 | 5.2 | 0.00 | 0.00 | 0.00 | 45 | 1013.3 |
| 20260504011025 | 52 | 183 | 0.9 | 5.2 | 0.00 | 0.00 | 0.00 | 44 | 1013.2 |
| 20260504010024 | 52 | 235 | 1.7 | 4.3 | 0.00 | 0.00 | 0.00 | 44 | 1013.1 |
| 20260504005025 | 53 | 197 | 2.6 | 7.8 | 0.00 | 0.00 | 0.00 | 44 | 1013.0 |
| 20260504004025 | 53 | 207 | 0.9 | 6.1 | 0.00 | 0.00 | 0.00 | 43 | 1012.9 |
| 20260504002025 | 54 | 264 | 1.7 | 7.0 | 0.00 | 0.00 | 0.00 | 41 | 1012.7 |
| 20260504001025 | 55 | 264 | 1.7 | 8.7 | 0.00 | 0.00 | 0.00 | 40 | 1012.7 |
| 20260504000024 | 55 | 272 | 0.9 | 7.8 | 0.00 | 0.00 | 0.00 | 40 | 1012.5 |
| 20260503235025 | 56 | 317 | 1.7 | 7.0 | 0.00 | 0.00 | 0.00 | 39 | 1012.5 |
| 20260503234027 | 56 | 211 | 1.7 | 7.0 | 0.00 | 0.00 | 0.00 | 38 | 1012.4 |
| 20260503233025 | 56 | 283 | 2.6 | 7.0 | 0.00 | 0.00 | 0.00 | 38 | 1012.3 |
| 20260503232025 | 57 | 226 | 2.6 | 8.7 | 0.00 | 0.00 | 0.00 | 37 | 1012.3 |
| 20260503231025 | 57 | 220 | 3.5 | 8.7 | 0.00 | 0.00 | 0.00 | 36 | 1012.3 |
| 20260503230025 | 58 | 272 | 0.9 | 8.7 | 0.00 | 0.00 | 0.00 | 37 | 1012.3 |
| 20260503225025 | 57 | 272 | 2.6 | 8.7 | 0.00 | 0.00 | 0.00 | 37 | 1012.3 |
| 20260503223025 | 58 | 272 | 4.3 | 14.8 | 0.00 | 0.00 | 0.00 | 34 | 1012.3 |
| 20260503221025 | 59 | 285 | 6.1 | 13.9 | 0.00 | 0.00 | 0.00 | 33 | 1012.3 |
| 20260503220024 | 59 | 311 | 4.3 | 10.4 | 0.00 | 0.00 | 0.00 | 35 | 1012.3 |